Regional Weather Roundup
Issued by NWS

Home | Current Version | Previous Version | Graphics & Text | Print | Product List | Glossary On
Versions: 1 2 3 4 5 6 7 8 9 10 11 12 13 14 15 16 17 18 19 20 21 22 23 24 25 26 27 28 29 30 31 32 33 34 35 36 37 38 39 40 41 42 43 44 45 46 47 48 49 50
000
ASUS43 KOAX 010110
RWRNE

WEATHER ROUNDUP FOR NEBRASKA
NATIONAL WEATHER SERVICE OMAHA NE
700 PM CST SAT FEB 28 2015

NOTES: SATELLITE DATA IS BEING USED TO AUGMENT CLOUD COVER ABOVE
       12000 FEET.
       "FAIR" INDICATES FEW OR NO CLOUDS BELOW 12,000 FEET WITH NO
       SIGNIFICANT WEATHER AND/OR OBSTRUCTIONS TO VISIBILITY.

  * THESE STATIONS DO NOT REPORT WEATHER SUCH AS RAIN...SNOW OR FOG.

NEZ001>004-019>022-054>056-010200-
NEBRASKA PANHANDLE

CITY           SKY/WX    TMP DP  RH WIND       PRES   REMARKS
SCOTTSBLUFF    PTCLDY    25   9  50 E8        30.04R WCI  16
ALLIANCE       CLEAR     22  10  60 NE7       30.04R WCI  13
CHADRON        CLEAR     24  14  65 S3        30.09R
KIMBALL        MOCLDY    23  15  71 E5        29.98R WCI  17
SIDNEY         PTCLDY    23  13  65 SE7       30.04R WCI  15
$$

NEZ057>060-069>072-079>082-010200-
SOUTHWEST NEBRASKA

CITY           SKY/WX    TMP DP  RH WIND       PRES   REMARKS
NORTH PLATTE   CLEAR     24  10  55 S5        30.14R WCI  18
IMPERIAL         N/A     20   9  62 S5        30.11R WCI  13
LEXINGTON      CLEAR     19  11  69 S7        30.19R WCI  10
MCCOOK         CLOUDY    25  12  58 S3        30.16S
OGALLALA       PTCLDY    24  11  59 SE3       30.09R
$$

NEZ005>010-023>029-035>040-094-010200-
NORTH CENTRAL NEBRASKA

CITY           SKY/WX    TMP DP  RH WIND       PRES   REMARKS
VALENTINE      CLEAR     27   7  42 N7        30.12R WCI  19
AINSWORTH      CLEAR     28  10  47 CALM      30.12R
BROKEN BOW     CLEAR     23  10  57 S9        30.16R WCI  13
O`NEILL        CLEAR     28  12  51 CALM      30.18R
ORD            CLEAR     24   8  50 S9        30.19R WCI  14
THEDFORD       CLEAR     23  10  58 S5        30.13R WCI  17
$$

NEZ041-046>049-061>064-073>077-083>087-010200-
SOUTH CENTRAL NEBRASKA

CITY           SKY/WX    TMP DP  RH WIND       PRES   REMARKS
GRAND ISLAND   CLEAR     19  12  74 S9        30.26R WCI   8
AURORA         FLURRIES  21  14  74 S8        30.27S WCI  11
HASTINGS       CLOUDY    20  14  77 S7        30.25R WCI  11
HEBRON         PTCLDY    17  12  81 CALM      30.31S
HOLDREGE       FLURRIES  21  14  75 S9        30.22R WCI  10
KEARNEY *      CLOUDY    21  12  68 S8        30.23R WCI  12
YORK           MOCLDY    19  16  86 SW8       30.29S WCI   9
$$

NEZ011>018-030>034-042>045-010200-
NORTHEAST NEBRASKA

CITY           SKY/WX    TMP DP  RH WIND       PRES   REMARKS
NORFOLK        CLEAR     22  13  68 S12       30.25R WCI  10
ALBION         CLEAR     21  10  62 S7        30.24R WCI  12
BLAIR          FLURRIES  22  17  80 S7        30.31S WCI  14
COLUMBUS *     CLOUDY    21   9  58 S12       30.30S WCI   9
FREMONT        CLOUDY    23  18  81 S6        30.33R WCI  16
WAYNE          CLEAR     20  12  72 S9        30.27R WCI   9
$$

NEZ050>053-065>068-078-088>093-010200-
SOUTHEAST NEBRASKA

CITY           SKY/WX    TMP DP  RH WIND       PRES   REMARKS
LINCOLN        CLOUDY    22  15  75 S8        30.34R WCI  12
OMAHA EPPLEY   FLURRIES  23  17  78 S12       30.36R WCI  12
BEATRICE       FLURRIES  21  16  80 S7        30.33S WCI  13
FALLS CITY     CLOUDY    21  16  81 SE5       30.38R WCI  15
NEBRASKA CITY  CLOUDY    22  16  77 S9        30.35S WCI  12
PLATTSMOUTH    FLURRIES  22  18  84 S6        30.34S WCI  15
$$

NEZ044-045-051>053-067-010200-
OMAHA AREA

CITY           SKY/WX    TMP DP  RH WIND       PRES   REMARKS
OMAHA EPPLEY   FLURRIES  23  17  78 S12       30.36R WCI  12
BLAIR          FLURRIES  22  17  80 S7        30.31S WCI  14
FREMONT        CLOUDY    23  18  81 S6        30.33R WCI  16
MILLARD        FLURRIES  23  19  83 SE6       30.35R WCI  16
OFFUTT AFB     FLURRIES  23  17  80 SE8       30.35R WCI  13
PLATTSMOUTH    FLURRIES  22  18  84 S6        30.34S WCI  15
WAHOO          CLOUDY    23  17  77 S7        30.33R WCI  14
$$


USA.gov is the U.S. government's official web portal to all federal, state and local government web resources and services.